Flag for Romania Weather past 2 weeks in Oradea, Romania

Now
91 °F

Sunny.


Feels Like: 89 °F
Forecast: 65 / 88 °F
Wind: 10 mph from West

Location: Oradea Airport

Current Time: Sep 2, 2015 at 6:50:01 PM

Latest Report: Sep 2, 2015 at 6:30 PM


Visibility: 10 mi

Pressure: 29.83 "Hg

Humidity: 26%

Dew point: 52 °F

Location of OradeaLocation

Historic Weather in Oradea — Graph

°F

Oradea temperature yesterday

Maximum temperature yesterday: 97 °F (at 3:30 PM)
Minimum temperature yesterday: 72 °F (at 8:00 AM)
Average temperature yesterday: 88 °F

Past Weeks' High & Low Weather Summary

 TemperatureHumidityPressure
High97 °F (Sep 1, 3:30 PM)100% (Aug 22, 9:00 AM)30.21 "Hg (Aug 22, 9:00 AM)
Low55 °F (Aug 24, 5:30 AM)22% (Sep 1, 5:30 PM)29.83 "Hg (Sep 1, 6:30 PM)
Average73 °F66%30.07 "Hg
* Reported Aug 18 5:00 PM — Sep 2 5:30 PM, Oradea, Weather by CustomWeather, © 2015

Note: Actual official high and low records may vary slightly from our data, if they occured in-between our weather recording intervals... More about our weather records

Advertising

Oradea weather history for previous 24 hours

 ConditionsComfort  
Time TempWeatherWind HumidityBarometerVisibility
5:30 PM
Wed, Sep 2
91 °FSunny.12 mph26%29.83 "Hg10 mi
5:00 PM93 °FPassing clouds.13 mph24%29.83 "HgN/A
4:30 PM93 °FPassing clouds.12 mph24%29.83 "HgN/A
4:00 PM91 °FSunny.14 mph28%29.83 "Hg10 mi
3:30 PM91 °FHot.13 mph26%29.86 "HgN/A
3:00 PM93 °FSunny.15 mph24%29.86 "Hg10 mi
2:30 PM91 °FPassing clouds.10 mph26%29.86 "HgN/A
2:00 PM90 °FPassing clouds.9 mph27%29.86 "HgN/A
1:30 PM90 °FSunny.10 mph29%29.86 "Hg10 mi
1:00 PM90 °FPassing clouds.8 mph27%29.86 "HgN/A
12:30 PM88 °FPassing clouds.8 mph27%29.89 "HgN/A
12:00 PM88 °FPassing clouds.7 mph27%29.89 "HgN/A
11:30 AM86 °FPassing clouds.7 mph33%29.89 "HgN/A
11:00 AM84 °FPassing clouds.6 mph37%29.89 "HgN/A
10:30 AM82 °FSunny.6 mph40%29.89 "Hg10 mi
10:00 AM81 °FPassing clouds.3 mph58%29.89 "HgN/A
9:30 AM75 °FPassing clouds.5 mph69%29.89 "HgN/A
9:00 AM73 °FSunny.6 mph69%29.89 "Hg10 mi
8:30 AM70 °FSunny.7 mph78%29.89 "Hg10 mi
8:00 AM68 °FSunny.7 mph78%29.86 "Hg10 mi
7:00 AM66 °FClear.8 mph83%29.86 "Hg10 mi
6:30 AM66 °FMild.8 mph83%29.86 "HgN/A
6:00 AM66 °FMild.7 mph83%29.86 "HgN/A
5:30 AM68 °FMild.7 mph78%29.86 "HgN/A
5:00 AM68 °FMild.8 mph78%29.86 "HgN/A
4:00 AM68 °FMild.7 mph83%29.86 "HgN/A
3:00 AM70 °FMild.7 mph73%29.86 "HgN/A
2:00 AM73 °FMild.7 mph65%29.86 "HgN/A
12:00 AM75 °FMild.6 mph61%29.86 "HgN/A
11:30 PM
Tue, Sep 1
77 °FWarm.8 mph57%29.86 "HgN/A
11:00 PM77 °FWarm.9 mph57%29.86 "HgN/A
10:30 PM79 °FWarm.8 mph51%29.83 "HgN/A
10:00 PM81 °FWarm.8 mph48%29.83 "HgN/A
9:30 PM81 °FWarm.8 mph51%29.83 "HgN/A
9:00 PM81 °FSunny.9 mph54%29.83 "Hg10 mi
8:00 PM86 °FSunny.7 mph46%29.83 "Hg10 mi
7:30 PM86 °FSunny.6 mph52%29.83 "Hg10 mi
7:00 PM91 °FSunny.6 mph36%29.83 "Hg10 mi
6:30 PM93 °FSunny.7 mph28%29.83 "Hg10 mi
Weather by CustomWeather, © 2015

See weather overviewHow to use our weather pages